Weather observations for the past three days for
Alturas
Imperial (Metric)
Date Time (pdt) Wind (mph) Vis. (mi.) Weather Sky Cond. Temperature (ºF) Relative Humidity Wind Chill (°F) Heat Index (°F) Pressure Precipitation (in)
Air Dwpt 6 hour altimeter (in) sea level (mb) 1 hr 3 hr 6 hr
Max. Min.
15 02:55 Calm 10.00 Mostly Cloudy BKN110 68 51.1 55% 30.21 1017.7
15 01:55 NE 3 10.00 Overcast OVC100 68 50 53% 30.22 1018.0
15 00:55 N 3 10.00 A Few Clouds FEW110 69.1 50 51% 30.22 1018.2
14 23:55 Calm 10.00 A Few Clouds FEW100 70 50 49% 30.22 1018.3
14 22:55 SE 5 10.00 Fair CLR 71.1 50 86 70 47% 30.22 1018.2
14 21:55 S 5 10.00 Fair CLR 71.1 51.1 49% 30.22 1018.5
14 20:55 SE 3 10.00 Fair CLR 73 50 44% 30.21 1018.0
14 19:55 Calm 10.00 Mostly Cloudy BKN110 77 48.9 37% 78 30.2 1017.7
14 18:55 N 5 10.00 Fair CLR 77 50 39% 78 30.21 1018.3
14 17:55 E 9 G 20 10.00 Overcast OVC110 75.9 51.1 42% 78 30.21 1018.4
14 16:55 W 17 10.00 Mostly Cloudy BKN110 86 44.1 91 80.1 23% 83 30.19 1016.9
14 15:55 W 15 G 28 10.00 Partly Cloudy SCT100 90 43 19% 86 30.19 1016.6
14 14:55 SW 5 G 20 10.00 A Few Clouds FEW120 87.1 44.1 22% 84 30.21 1017.3
14 13:55 SW 9 G 20 10.00 Fair CLR 88 45 22% 85 30.22 1017.3
14 12:55 S 12 10.00 A Few Clouds FEW120 84 46 27% 82 30.22 1018.1
14 11:55 S 13 10.00 Partly Cloudy SCT065 81 46 29% 80 30.23 1018.4
14 10:55 S 13 10.00 Fair CLR 81 48 82 68 32% 80 30.23 1017.8
14 09:55 SE 6 10.00 Overcast OVC110 79 46.9 32% 79 30.23 1017.8
14 08:55 S 3 10.00 Mostly Cloudy BKN120 77 46 33% 78 30.21 1017.4
14 07:55 Calm 10.00 Fair CLR 75 45 34% 77 30.19 1016.7
14 06:55 NE 3 10.00 Fair CLR 71.1 46.9 42% 30.18 1016.0
14 05:55 Calm 10.00 Fair CLR 69.1 45 42% 30.17 1015.8
14 04:55 E 3 10.00 Fair CLR 71.1 42.1 82.9 69.1 35% 30.17 1015.6
14 03:55 Calm 10.00 Fair CLR 70 42.1 37% 30.16 1015.3
14 02:55 Calm 10.00 Fair CLR 72 42.1 34% 30.17 1015.7
14 01:55 SE 6 10.00 Mostly Cloudy BKN110 75 42.1 31% 77 30.16 1015.1
14 00:55 N 3 10.00 Fair CLR 71.1 43 36% 30.16 1015.0
13 23:55 S 6 10.00 Fair CLR 77 42.1 29% 78 30.15 1014.5
13 22:55 NE 6 10.00 Partly Cloudy SCT110 82 39.9 93.9 81 22% 80 30.16 1014.9
13 21:55 Vrbl 3 10.00 Partly Cloudy SCT110 84.9 39 20% 82 30.18 1015.6
13 20:55 SW 6 10.00 Fair CLR 84 37 19% 81 30.14 1014.8
13 19:55 Calm 10.00 Fair CLR 86 39 19% 83 30.1 1014.1
13 18:55 W 13 10.00 Fair CLR 93 37 14% 89 30.1 1013.9
13 17:55 W 10 10.00 Fair CLR 91.9 37 14% 88 30.1 1014.3
13 16:55 W 16 10.00 Fair CLR 93 35.1 99 88 13% 89 30.12 1014.8
13 15:55 W 8 G 20 10.00 Fair CLR 95 36 13% 90 30.12 1014.8
13 14:55 Vrbl 3 G 16 9.00 Light Rain FEW048 SCT065 BKN085 89.1 42.1 19% 85 30.13 1015.4
13 13:55 W 9 10.00 Fair CLR 97 35.1 11% 92 30.11 1014.0
13 12:55 N 8 10.00 Fair CLR 98.1 35.1 11% 93 30.12 1014.2
13 11:55 N 3 10.00 Fair CLR 95 34 12% 90 30.13 1014.6
13 10:55 Calm 10.00 Fair CLR 89.1 35.1 90 52 15% 85 30.14 1014.9
13 09:55 Vrbl 3 10.00 Fair CLR 84 36 18% 81 30.15 1015.0
13 08:55 NW 3 10.00 Fair CLR 75.9 36 23% 77 30.16 1015.6
13 07:55 E 3 10.00 Fair CLR 68 37.9 33% 30.17 1016.0
13 06:55 Calm 10.00 Fair CLR 57.9 35.1 42% 30.16 1016.2
13 05:55 S 3 10.00 Fair CLR 54 32 43% 30.16 1016.0
13 04:55 Calm 10.00 Fair CLR 54 34 71.1 53.1 47% 30.14 1015.6
13 03:55 Calm 10.00 Fair CLR 55 34 45% 30.13 1014.9
13 02:55 Calm 10.00 Fair CLR 57 35.1 44% 30.12 1014.5
13 01:55 Calm 10.00 Fair CLR 60.1 33.1 36% 30.13 1014.6
13 00:55 Calm 10.00 Fair CLR 60.1 33.1 36% 30.13 1014.9
12 23:55 NW 3 10.00 Fair CLR 64.9 34 32% 30.14 1014.9
12 22:55 Vrbl 3 10.00 Fair CLR 71.1 32 98.1 69.1 24% 30.13 1014.4
12 21:55 SE 3 10.00 Fair CLR 78.1 28.9 16% 77 30.11 1013.8
12 20:55 W 8 10.00 Fair CLR 82.9 28 13% 80 30.09 1013.4
12 19:55 W 13 10.00 Fair CLR 90 26.1 10% 86 30.09 1013.1
12 18:55 W 18 G 25 10.00 Fair CLR 93.9 25 8% 89 30.07 0.0
12 17:55 W 18 G 25 10.00 Fair CLR 97 24.1 7% 92 30.06 1012.9
12 16:55 W 21 G 30 10.00 Fair and Breezy CLR 98.1 25 100.9 90 7% 93 30.07 1012.9
12 15:55 W 23 G 33 10.00 Fair and Breezy CLR 99 23 6% 93 30.08 1013.2
12 14:55 W 20 G 30 10.00 Fair CLR 100 24.1 7% 94 30.09 1013.2
12 13:55 W 17 G 26 10.00 Fair CLR 100 26.1 7% 94 30.09 1013.1
12 12:55 W 17 G 25 10.00 Fair CLR 98.1 26.1 8% 93 30.11 1014.0
12 11:55 Vrbl 3 10.00 Fair CLR 93.9 36 13% 89 30.12 1014.5
12 10:55 SE 6 10.00 Fair CLR 90 39 17% 86 30.13 1014.7
12 08:55 Calm 10.00 Fair CLR 75 41 29% 77 30.16 1015.8
12 07:55 Calm 10.00 NULL NULL 69.1 41 36% 30.16 1015.7
12 05:55 Calm 10.00 Fair CLR 54 39 57% 30.15 1015.9
12 04:55 Calm 10.00 Fair CLR 55.9 37.9 70 52 51% 30.14 1015.2
12 03:55 Calm 10.00 Fair CLR 55 37.9 53% 30.13 1015.0
Date Time (pdt) Wind (mph) Vis. (mi.) Weather Sky Cond. Air Dwpt Max. Min. Relative Humidity Wind Chill (°F) Heat Index (°F) altimeter (in) sea level (mb) 1 hr 3 hr 6 hr
6 hour
Temperature (ºF) Pressure Precipitation (in)